Time,TemperatureF,DewpointF,PressureIn,WindDirection,WindDirectionDegrees,WindSpeedMPH,WindSpeedGustMPH,Humidity,HourlyPrecipIn,Conditions,Clouds,dailyrainin,SoftwareType,DateUTC
2013-02-11 00:07:00,28.3,24.0,30.25,SE,127,0.0,1.0,83,0.00,,,0.00,weatherlink.com 1.10,2013-02-11 08:07:00,
2013-02-11 00:22:00,28.5,24.0,30.25,NNW,330,0.0,1.0,83,0.00,,,0.00,weatherlink.com 1.10,2013-02-11 08:22:00,
2013-02-11 00:37:00,28.1,24.0,30.24,NNW,330,1.0,1.0,83,0.00,,,0.00,weatherlink.com 1.10,2013-02-11 08:37:00,
2013-02-11 00:52:00,27.4,23.0,30.24,SSE,150,0.0,1.0,84,0.00,,,0.00,weatherlink.com 1.10,2013-02-11 08:52:00,
2013-02-11 01:07:00,27.3,23.0,30.25,SSE,151,0.0,0.0,84,0.00,,,0.00,weatherlink.com 1.10,2013-02-11 09:07:00,
2013-02-11 01:22:00,27.6,23.0,30.24,ESE,106,0.0,1.0,84,0.00,,,0.00,weatherlink.com 1.10,2013-02-11 09:22:00,
2013-02-11 01:37:00,28.5,24.0,30.25,SE,136,0.0,1.0,83,0.00,,,0.00,weatherlink.com 1.10,2013-02-11 09:37:00,
2013-02-11 01:52:00,28.8,24.0,30.25,SE,136,0.0,0.0,83,0.00,,,0.00,weatherlink.com 1.10,2013-02-11 09:52:00,
2013-02-11 02:07:00,29.3,24.0,30.24,East,91,1.0,1.0,82,0.00,,,0.00,weatherlink.com 1.10,2013-02-11 10:07:00,
2013-02-11 02:22:00,30.1,25.0,30.24,East,91,0.0,1.0,81,0.00,,,0.00,weatherlink.com 1.10,2013-02-11 10:22:00,
2013-02-11 02:37:00,30.5,25.0,30.24,East,90,0.0,0.0,80,0.00,,,0.00,weatherlink.com 1.10,2013-02-11 10:37:00,
2013-02-11 02:52:00,29.1,24.0,30.25,WNW,283,0.0,1.0,82,0.00,,,0.00,weatherlink.com 1.10,2013-02-11 10:52:00,
2013-02-11 03:07:00,27.8,24.0,30.24,SE,142,2.0,4.0,84,0.00,,,0.00,weatherlink.com 1.10,2013-02-11 11:07:00,
2013-02-11 03:22:00,27.9,24.0,30.24,SSE,149,2.0,3.0,84,0.00,,,0.00,weatherlink.com 1.10,2013-02-11 11:22:00,
2013-02-11 03:37:00,28.9,24.0,30.24,South,170,1.0,2.0,82,0.00,,,0.00,weatherlink.com 1.10,2013-02-11 11:37:00,
2013-02-11 03:52:00,29.6,24.0,30.24,SE,139,0.0,2.0,81,0.00,,,0.00,weatherlink.com 1.10,2013-02-11 11:52:00,
2013-02-11 04:07:00,29.8,25.0,30.25,SE,139,0.0,1.0,81,0.00,,,0.00,weatherlink.com 1.10,2013-02-11 12:07:00,
2013-02-11 04:22:00,29.3,24.0,30.25,SE,139,1.0,1.0,82,0.00,,,0.00,weatherlink.com 1.10,2013-02-11 12:22:00,
2013-02-11 04:37:00,28.9,24.0,30.24,SE,140,0.0,0.0,83,0.00,,,0.00,weatherlink.com 1.10,2013-02-11 12:37:00,
2013-02-11 04:52:00,28.0,24.0,30.23,SE,129,1.0,4.0,85,0.00,,,0.00,weatherlink.com 1.10,2013-02-11 12:52:00,
2013-02-11 05:07:00,28.7,25.0,30.23,SSE,150,0.0,1.0,84,0.00,,,0.00,weatherlink.com 1.10,2013-02-11 13:07:00,
2013-02-11 05:22:00,28.6,24.0,30.23,SSE,150,0.0,1.0,84,0.00,,,0.00,weatherlink.com 1.10,2013-02-11 13:22:00,
2013-02-11 05:37:00,28.5,24.0,30.23,SSE,150,0.0,1.0,84,0.00,,,0.00,weatherlink.com 1.10,2013-02-11 13:37:00,
2013-02-11 05:52:00,28.9,25.0,30.24,SSE,151,0.0,1.0,84,0.00,,,0.00,weatherlink.com 1.10,2013-02-11 13:52:00,
2013-02-11 06:07:00,29.2,25.0,30.23,SSE,150,0.0,0.0,83,0.00,,,0.00,weatherlink.com 1.10,2013-02-11 14:07:00,
2013-02-11 06:22:00,29.4,25.0,30.23,SSE,150,0.0,0.0,82,0.00,,,0.00,weatherlink.com 1.10,2013-02-11 14:22:00,
2013-02-11 06:37:00,29.4,25.0,30.23,SSE,150,0.0,0.0,83,0.00,,,0.00,weatherlink.com 1.10,2013-02-11 14:37:00,
2013-02-11 06:52:00,29.5,25.0,30.23,SSE,150,0.0,0.0,83,0.00,,,0.00,weatherlink.com 1.10,2013-02-11 14:52:00,
2013-02-11 07:07:00,29.8,25.0,30.23,SSE,150,0.0,1.0,83,0.00,,,0.00,weatherlink.com 1.10,2013-02-11 15:07:00,
2013-02-11 07:22:00,30.4,25.0,30.24,SE,140,1.0,1.0,81,0.00,,,0.00,weatherlink.com 1.10,2013-02-11 15:22:00,
2013-02-11 07:37:00,31.0,26.0,30.24,SW,224,0.0,1.0,80,0.00,,,0.00,weatherlink.com 1.10,2013-02-11 15:37:00,
2013-02-11 07:52:00,31.0,26.0,30.24,SW,224,0.0,0.0,80,0.00,,,0.00,weatherlink.com 1.10,2013-02-11 15:52:00,
2013-02-11 08:07:00,31.3,26.0,30.24,SW,224,0.0,0.0,81,0.00,,,0.00,weatherlink.com 1.10,2013-02-11 16:07:00,
2013-02-11 08:22:00,31.4,27.0,30.24,SW,224,0.0,0.0,82,0.00,,,0.00,weatherlink.com 1.10,2013-02-11 16:22:00,
2013-02-11 08:37:00,31.3,26.0,30.24,SSE,152,0.0,1.0,81,0.00,,,0.00,weatherlink.com 1.10,2013-02-11 16:37:00,
2013-02-11 08:52:00,31.7,27.0,30.25,SSE,152,0.0,1.0,82,0.00,,,0.00,weatherlink.com 1.10,2013-02-11 16:52:00,
2013-02-11 09:07:00,31.3,27.0,30.25,North,359,0.0,1.0,83,0.00,,,0.00,weatherlink.com 1.10,2013-02-11 17:07:00,
2013-02-11 09:22:00,32.1,28.0,30.25,NW,304,0.0,2.0,83,0.00,,,0.00,weatherlink.com 1.10,2013-02-11 17:22:00,
2013-02-11 09:37:00,32.2,27.0,30.25,WNW,293,0.0,1.0,82,0.00,,,0.00,weatherlink.com 1.10,2013-02-11 17:37:00,
2013-02-11 09:52:00,32.3,27.0,30.25,NNW,340,1.0,2.0,82,0.00,,,0.00,weatherlink.com 1.10,2013-02-11 17:52:00,
2013-02-11 10:07:00,32.4,28.0,30.25,West,273,1.0,1.0,82,0.00,,,0.00,weatherlink.com 1.10,2013-02-11 18:07:00,
2013-02-11 10:22:00,32.7,28.0,30.26,NNW,348,0.0,3.0,81,0.00,,,0.00,weatherlink.com 1.10,2013-02-11 18:22:00,
2013-02-11 10:38:00,33.4,28.0,30.25,ENE,76,0.0,2.0,79,0.00,,,0.00,weatherlink.com 1.10,2013-02-11 18:38:00,
2013-02-11 10:53:00,34.0,28.0,30.25,NNW,347,1.0,3.0,78,0.00,,,0.00,weatherlink.com 1.10,2013-02-11 18:53:00,
2013-02-11 11:08:00,34.4,28.0,30.24,NNW,338,1.0,3.0,77,0.00,,,0.00,weatherlink.com 1.10,2013-02-11 19:08:00,
2013-02-11 11:23:00,34.9,28.0,30.24,West,280,0.0,4.0,76,0.00,,,0.00,weatherlink.com 1.10,2013-02-11 19:23:00,
2013-02-11 11:38:00,35.7,29.0,30.23,SSE,148,1.0,6.0,75,0.00,,,0.00,weatherlink.com 1.10,2013-02-11 19:38:00,
2013-02-11 11:53:00,36.5,29.0,30.23,SSW,200,0.0,5.0,74,0.00,,,0.00,weatherlink.com 1.10,2013-02-11 19:53:00,
2013-02-11 12:23:00,36.9,29.0,30.23,NNW,340,2.0,5.0,72,0.00,,,0.00,weatherlink.com 1.10,2013-02-11 20:23:00,
2013-02-11 12:38:00,37.5,28.0,30.23,WSW,246,0.0,3.0,68,0.00,,,0.00,weatherlink.com 1.10,2013-02-11 20:38:00,
2013-02-11 12:53:00,37.3,28.0,30.23,West,259,0.0,2.0,69,0.00,,,0.00,weatherlink.com 1.10,2013-02-11 20:53:00,
2013-02-11 13:08:00,37.2,29.0,30.22,SW,219,4.0,8.0,72,0.00,,,0.00,weatherlink.com 1.10,2013-02-11 21:08:00,
2013-02-11 13:23:00,37.7,29.0,30.21,SW,221,6.0,12.0,72,0.00,,,0.00,weatherlink.com 1.10,2013-02-11 21:23:00,
2013-02-11 13:38:00,37.3,29.0,30.21,West,259,4.0,12.0,72,0.00,,,0.00,weatherlink.com 1.10,2013-02-11 21:38:00,
2013-02-11 13:53:00,37.4,29.0,30.21,West,260,5.0,13.0,72,0.00,,,0.00,weatherlink.com 1.10,2013-02-11 21:53:00,
2013-02-11 14:08:00,36.6,28.0,30.22,SSW,212,2.0,9.0,72,0.00,,,0.00,weatherlink.com 1.10,2013-02-11 22:08:00,
2013-02-11 14:23:00,35.7,28.0,30.22,SSW,201,4.0,9.0,74,0.01,,,0.01,weatherlink.com 1.10,2013-02-11 22:23:00,
2013-02-11 14:38:00,35.3,28.0,30.22,SSE,163,6.0,11.0,76,0.01,,,0.01,weatherlink.com 1.10,2013-02-11 22:38:00,
2013-02-11 14:53:00,34.8,28.0,30.22,SW,219,4.0,8.0,77,0.01,,,0.01,weatherlink.com 1.10,2013-02-11 22:53:00,
2013-02-11 15:08:00,34.9,29.0,30.22,SW,224,4.0,5.0,78,0.01,,,0.01,weatherlink.com 1.10,2013-02-11 23:08:00,
2013-02-11 15:23:00,34.9,29.0,30.22,SSW,204,1.0,4.0,79,0.00,,,0.01,weatherlink.com 1.10,2013-02-11 23:23:00,
2013-02-11 15:38:00,35.0,29.0,30.22,SW,221,0.0,1.0,79,0.00,,,0.01,weatherlink.com 1.10,2013-02-11 23:38:00,
2013-02-11 15:53:00,34.9,29.0,30.22,WSW,253,0.0,0.0,78,0.00,,,0.01,weatherlink.com 1.10,2013-02-11 23:53:00,
2013-02-11 16:08:00,34.8,29.0,30.22,WSW,253,0.0,1.0,78,0.00,,,0.01,weatherlink.com 1.10,2013-02-12 00:08:00,
2013-02-11 16:23:00,34.6,29.0,30.23,SW,217,0.0,1.0,79,0.00,,,0.01,weatherlink.com 1.10,2013-02-12 00:23:00,
2013-02-11 16:38:00,34.5,29.0,30.23,SSW,201,0.0,2.0,79,0.00,,,0.01,weatherlink.com 1.10,2013-02-12 00:38:00,
2013-02-11 16:53:00,34.5,29.0,30.22,SSE,150,2.0,4.0,79,0.00,,,0.01,weatherlink.com 1.10,2013-02-12 00:53:00,
2013-02-11 17:08:00,34.2,29.0,30.22,SSE,162,0.0,3.0,80,0.00,,,0.01,weatherlink.com 1.10,2013-02-12 01:08:00,
2013-02-11 17:23:00,34.3,29.0,30.22,SW,227,2.0,3.0,80,0.00,,,0.01,weatherlink.com 1.10,2013-02-12 01:23:00,
2013-02-11 17:38:00,34.1,29.0,30.22,SW,224,2.0,4.0,81,0.00,,,0.01,weatherlink.com 1.10,2013-02-12 01:38:00,
2013-02-11 17:53:00,34.1,29.0,30.23,SW,233,2.0,4.0,80,0.00,,,0.01,weatherlink.com 1.10,2013-02-12 01:53:00,
2013-02-11 18:08:00,34.0,29.0,30.23,SW,214,1.0,3.0,81,0.00,,,0.01,weatherlink.com 1.10,2013-02-12 02:08:00,
2013-02-11 18:23:00,33.7,28.0,30.24,SW,227,0.0,1.0,81,0.01,,,0.02,weatherlink.com 1.10,2013-02-12 02:23:00,
2013-02-11 18:38:00,33.5,29.0,30.23,SW,226,0.0,1.0,82,0.01,,,0.02,weatherlink.com 1.10,2013-02-12 02:38:00,
2013-02-11 18:53:00,33.4,29.0,30.23,SW,215,0.0,1.0,82,0.01,,,0.02,weatherlink.com 1.10,2013-02-12 02:53:00,
2013-02-11 19:08:00,33.3,28.0,30.23,SW,215,0.0,0.0,81,0.01,,,0.02,weatherlink.com 1.10,2013-02-12 03:08:00,
2013-02-11 19:23:00,33.1,28.0,30.23,SW,215,0.0,0.0,82,0.00,,,0.02,weatherlink.com 1.10,2013-02-12 03:23:00,
2013-02-11 19:38:00,33.1,28.0,30.23,SSW,199,0.0,0.0,82,0.00,,,0.02,weatherlink.com 1.10,2013-02-12 03:38:00,
2013-02-11 19:53:00,33.3,28.0,30.23,SW,214,0.0,2.0,81,0.00,,,0.02,weatherlink.com 1.10,2013-02-12 03:53:00,
2013-02-11 20:08:00,33.0,28.0,30.23,North,6,1.0,3.0,81,0.00,,,0.02,weatherlink.com 1.10,2013-02-12 04:08:00,
2013-02-11 20:23:00,33.1,28.0,30.23,NE,44,0.0,1.0,82,0.00,,,0.02,weatherlink.com 1.10,2013-02-12 04:23:00,
2013-02-11 20:38:00,33.1,28.0,30.23,West,266,0.0,0.0,81,0.00,,,0.02,weatherlink.com 1.10,2013-02-12 04:38:00,
2013-02-11 20:53:00,33.0,28.0,30.23,NNE,30,0.0,3.0,82,0.00,,,0.02,weatherlink.com 1.10,2013-02-12 04:53:00,
2013-02-11 21:08:00,33.1,28.0,30.23,North,9,0.0,1.0,81,0.00,,,0.02,weatherlink.com 1.10,2013-02-12 05:08:00,
2013-02-11 21:23:00,33.1,28.0,30.23,North,11,1.0,1.0,81,0.00,,,0.02,weatherlink.com 1.10,2013-02-12 05:23:00,
2013-02-11 21:38:00,33.0,28.0,30.23,North,11,0.0,1.0,82,0.00,,,0.02,weatherlink.com 1.10,2013-02-12 05:38:00,
2013-02-11 21:53:00,33.1,28.0,30.23,East,98,0.0,1.0,81,0.00,,,0.02,weatherlink.com 1.10,2013-02-12 05:53:00,
2013-02-11 22:08:00,33.2,28.0,30.23,East,98,0.0,0.0,81,0.00,,,0.02,weatherlink.com 1.10,2013-02-12 06:08:00,
2013-02-11 22:23:00,33.2,28.0,30.23,SW,231,0.0,3.0,82,0.00,,,0.02,weatherlink.com 1.10,2013-02-12 06:23:00,
2013-02-11 22:38:00,32.7,28.0,30.23,SW,236,0.0,3.0,83,0.00,,,0.02,weatherlink.com 1.10,2013-02-12 06:38:00,
2013-02-11 22:53:00,32.6,28.0,30.23,SSW,207,0.0,6.0,83,0.00,,,0.02,weatherlink.com 1.10,2013-02-12 06:53:00,
2013-02-11 23:08:00,32.0,28.0,30.24,NNE,30,0.0,2.0,84,0.00,,,0.02,weatherlink.com 1.10,2013-02-12 07:08:00,
2013-02-11 23:23:00,32.1,28.0,30.24,South,191,1.0,8.0,84,0.00,,,0.02,weatherlink.com 1.10,2013-02-12 07:23:00,
2013-02-11 23:38:00,32.2,28.0,30.24,SSW,207,1.0,3.0,83,0.00,,,0.02,weatherlink.com 1.10,2013-02-12 07:38:00,
2013-02-11 23:53:00,31.8,28.0,30.23,ESE,121,0.0,2.0,84,0.00,,,0.02,weatherlink.com 1.10,2013-02-12 07:53:00,